TimeCDT,TemperatureF,Dew PointF,Humidity,Sea Level PressureIn,VisibilityMPH,Wind Direction,Wind SpeedMPH,Gust SpeedMPH,PrecipitationIn,Events,Conditions,WindDirDegrees,DateUTC
12:20 AM,51.8,51.8,100,29.98,1.8,ENE,8.1,-,N/A,,Overcast,60,2013-04-28 05:20:00
12:32 AM,51.8,51.8,100,29.97,2.0,ENE,6.9,-,N/A,,Overcast,60,2013-04-28 05:32:00
12:48 AM,51.8,51.8,100,29.97,1.5,ENE,8.1,-,0.00,Rain,Light Rain,60,2013-04-28 05:48:00
12:56 AM,52.0,52.0,100,29.96,1.2,ENE,9.2,-,0.00,Rain,Light Rain,60,2013-04-28 05:56:00
1:07 AM,51.8,51.8,100,29.95,1.0,ENE,8.1,-,0.00,Rain,Light Rain,60,2013-04-28 06:07:00
1:38 AM,51.8,51.8,100,29.94,1.2,ENE,9.2,-,0.01,Rain,Light Rain,60,2013-04-28 06:38:00
1:56 AM,52.0,52.0,100,29.93,1.2,ENE,8.1,-,0.01,Rain,Light Rain,60,2013-04-28 06:56:00
2:05 AM,51.8,51.8,100,29.93,1.5,ENE,8.1,-,0.00,Rain,Light Rain,60,2013-04-28 07:05:00
2:48 AM,51.8,51.8,100,29.91,2.0,ENE,9.2,-,0.00,,Overcast,70,2013-04-28 07:48:00
2:56 AM,52.0,52.0,100,29.91,2.0,ENE,9.2,-,0.00,Rain,Light Rain,70,2013-04-28 07:56:00
3:56 AM,52.0,52.0,100,29.90,1.8,ENE,8.1,-,0.00,Rain,Light Rain,60,2013-04-28 08:56:00
4:56 AM,52.0,52.0,100,29.90,1.8,NNE,6.9,-,0.06,Rain,Rain,30,2013-04-28 09:56:00
5:11 AM,51.8,51.8,100,29.90,1.0,NE,8.1,-,0.01,Rain,Light Rain,40,2013-04-28 10:11:00
5:21 AM,51.8,51.8,100,29.90,0.5,NE,8.1,-,0.02,Fog-Rain,Light Rain,40,2013-04-28 10:21:00
5:56 AM,52.0,52.0,100,29.90,0.8,NNE,6.9,-,0.03,Rain,Light Rain,30,2013-04-28 10:56:00
6:04 AM,51.8,51.8,100,29.89,0.2,NNE,6.9,-,0.00,Fog-Rain,Light Rain,30,2013-04-28 11:04:00
6:15 AM,51.8,51.8,100,29.90,0.8,NE,8.1,-,0.00,Rain,Light Rain,40,2013-04-28 11:15:00
6:34 AM,51.8,51.8,100,29.90,0.2,NNE,8.1,-,0.00,Fog,Fog,30,2013-04-28 11:34:00
6:56 AM,52.9,52.9,100,29.91,0.2,NNE,8.1,-,0.00,Fog,Fog,20,2013-04-28 11:56:00
7:56 AM,52.9,52.9,100,29.91,0.5,NNE,8.1,-,N/A,Fog,Fog,20,2013-04-28 12:56:00
8:20 AM,53.6,53.6,100,29.90,0.2,NNE,8.1,-,N/A,Fog,Fog,20,2013-04-28 13:20:00
8:56 AM,52.9,52.9,100,29.91,0.5,NNE,6.9,-,N/A,Fog,Fog,20,2013-04-28 13:56:00
9:31 AM,53.6,53.6,100,29.91,1.0,North,8.1,-,N/A,,Overcast,10,2013-04-28 14:31:00
9:56 AM,54.0,54.0,100,29.92,2.0,North,6.9,-,N/A,,Overcast,10,2013-04-28 14:56:00
10:56 AM,54.9,54.0,97,29.92,4.0,NNW,10.4,-,N/A,,Overcast,340,2013-04-28 15:56:00
11:56 AM,54.9,54.0,97,29.92,2.0,NNW,11.5,-,N/A,,Overcast,340,2013-04-28 16:56:00
12:56 PM,55.9,54.9,96,29.91,8.0,NNW,9.2,-,0.00,,Overcast,340,2013-04-28 17:56:00
1:56 PM,59.0,54.9,86,29.91,10.0,NNW,8.1,-,N/A,,Overcast,340,2013-04-28 18:56:00
2:40 PM,60.8,55.4,82,29.90,10.0,NNW,8.1,-,N/A,,Overcast,340,2013-04-28 19:40:00
2:56 PM,59.9,54.9,83,29.89,10.0,NNW,8.1,-,N/A,,Overcast,340,2013-04-28 19:56:00
3:56 PM,61.0,54.9,80,29.87,10.0,NW,4.6,-,N/A,,Overcast,310,2013-04-28 20:56:00
4:20 PM,60.8,53.6,77,29.87,10.0,NNW,8.1,-,N/A,,Overcast,330,2013-04-28 21:20:00
4:56 PM,61.0,54.0,78,29.87,10.0,NW,3.5,-,N/A,,Mostly Cloudy,320,2013-04-28 21:56:00
5:56 PM,61.0,54.9,80,29.88,10.0,WSW,4.6,-,N/A,,Overcast,240,2013-04-28 22:56:00
6:56 PM,59.9,55.9,87,29.87,10.0,Variable,6.9,-,N/A,,Mostly Cloudy,0,2013-04-28 23:56:00
7:56 PM,59.0,55.9,90,29.88,10.0,SSW,6.9,-,N/A,,Overcast,200,2013-04-29 00:56:00
8:56 PM,54.0,52.9,96,29.90,7.0,South,5.8,-,N/A,,Clear,190,2013-04-29 01:56:00
9:56 PM,54.0,52.0,93,29.90,8.0,SW,8.1,-,N/A,,Clear,230,2013-04-29 02:56:00
10:56 PM,54.9,52.0,90,29.91,8.0,WSW,9.2,-,N/A,,Clear,240,2013-04-29 03:56:00
11:56 PM,52.9,50.9,93,29.91,8.0,WSW,9.2,-,N/A,,Clear,240,2013-04-29 04:56:00